Simultaneous Nadir Overpasses (SNOs) Predictions

Prediction of SNOs between METOP-B and TERRA Satellite Orbit:

Table of predicted SNOs for the next 14.0 days since TLE Epoch: 12/25/2021
Index Date (METOP-B) Time (METOP-B) Lat,Lon (METOP-B) SZA (METOP-B ) Date (TERRA) Time (TERRA) Lat,Lon (TERRA) SZA (TERRA ) Distance(km) Time Diff (sec)
1 12/27/2021 14:29:24 81.25, 6.25 106.77 12/27/2021 14:30:23 81.24, 6.13 106.78 2.17 59
2 12/27/2021 15:20:03 -81.26, 174.14 73.17 12/27/2021 15:19:49 -81.26, 174.04 73.19 1.78 14
3 12/30/2021 10:03:44 81.25, 72.70 106.58 12/30/2021 10:04:32 81.26, 72.83 106.62 2.45 48
4 12/30/2021 10:54:24 -81.25,-119.77 73.40 12/30/2021 10:53:59 -81.25,-119.60 73.40 2.80 25
5 01/02/2022 05:38:05 81.25, 139.11 106.33 01/02/2022 05:38:43 81.24, 139.08 106.34 0.57 38
6 01/02/2022 06:28:44 -81.26, -52.94 73.61 01/02/2022 06:28:09 -81.26, -52.95 73.62 0.42 35
7 01/05/2022 01:12:26 81.25,-154.51 106.01 01/05/2022 01:12:53 81.25,-154.37 106.04 2.40 27
8 01/05/2022 02:03:06 -81.25, 13.08 73.97 01/05/2022 02:02:20 -81.25, 13.24 73.98 2.83 46
9 01/07/2022 20:46:45 81.25, -87.79 105.67 01/07/2022 20:47:02 81.25, -87.91 105.67 2.08 17



Historial Predications of SNOs between METOP-B and TERRA
